Showing default

FLOCK 4BE 2, 60511

Orbit data source: Space-Track

FLOCK 4BE 2, 60511 is a payload satellite owned by Planet (US) in SSO that was launched on Fri, 16 Aug 2024 UTC via an FALCON 9 launch vehicle from the Air Force Western Test Range (AFWTR). Payload-class satellites include a variety of spacecraft equipped with specific instruments for various scientific and technological missions. These include communications satellites like Starlink; space stations such as the ISS; scientific satellites like the Hubble; Earth observation satellites from companies like Planet Labs, Umbra, and HawkEye 360; GPS; miniature CubeSats for education and research; and military/defense satellites.

Loading next visibility...
Identifier
60511, 2024-149AV
Orbit
SSO
Country
Flag of USUS
Related business
Manufacturer
Planet
Mission
Non-operational Commercial Imaging
Bus & Motor
CUBESAT 3U, Unknown motor
Mass
5.7 kg wet, 5.7 kg dry
Launch date (UTC)
2024-08-16 (2 years ago)
Launch vehicle
FALCON 9
Launch site
Air Force Western Test Range (AFWTR)
Object type
Payload
Rocket body
Debris
Shape & HBR
Box + 2 Pan, 1.0 m
Radar Cross Section
0.072 m², Medium (>0.1 m² and < 1m²)

Expand to show TLE details & history
Last TLE update: 18 hours ago

TLE from 18 hours ago
0 FLOCK 4BE 2
1 60511U 24149AV  26236.70777858  .00088737  00000-0  10354-2 0  9999
2 60511  97.3793 326.3654 0001888  37.7341 322.4049 15.61344741113164
Epoch: 2026-08-24T16:59Z
TLE epoch observation values (Epoch: 2026-08-24T16:59:12.069Z)
Latitude
0.00002°
Longitude
98.5795°
Altitude
385.907 km
Speed
7.679 km/s
True Right ascension
21h 45m 27s
True Declination
0° 00' 00"
Sunlit
Object was in full shadow at epoch
Visualization orbit readout
Latitude
Unknown
Longitude
Unknown
Altitude
Unknown
Speed
Unknown
Apparent Right ascension
Unknown
Apparent Declination
Unknown
Sunlit
N/A
Visualization observer readout
Local Sidereal Time
02:05:19
Azimuth
Unknown
Elevation
Unknown
Doppler factor
Unknown
Orbital elements
Apogee altitude
381.958 km
Perigee altitude
379.405 km
Semi-major axis
6,758.819 km
Eccentricity
0.00019
Inclination
97.3793°
RAAN
326.3654°
Arg. of periapsis
37.7341°
True anomaly
322.3917°
Mean anomaly
322.4049°
Eccentric anomaly
322.3983°
Mean motion
3.90604 °/min
Orbital period
92.16 mins
BSTAR
0.0010354
Loading maneuver chart data...
Computing Atmospheric mass density...
Loading historical data...
Loading historical data...
Loading historical data...
Loading historical data...
Loading historical data...
Loading historical data...
Loading historical data...

Documentation

Showing up to 5 results
|